Location: Champseau
(45.8333°N, 1.7667°E)
Time: 03:13:38
(UTC+00:00)

Cosmos 44 - Pass Details

Date: 18 April 2021
Orbit: 571 x 791 km, 65.1° (Epoch: 10 May)

Event Time Altitude Azimuth Distance (km) Brightness Sun altitude
Rises 20:48:47 0° 229° (SW) 3,104 6.7 -19.7°
Reaches altitude 10° 20:51:08 10° 234° (SW) 2,221 6.0 -20.0°
Maximum altitude 20:56:08 53° 312° (NW) 927 4.2 -20.7°
Drops below altitude 10° 21:01:25 10° 29° (NNE) 2,339 6.2 -21.3°
Sets 21:03:57 0° 34° (NE) 3,285 6.9 -21.7°
